This demonstration page uses our WeatherBlox Daily Observations layout. Learn more.

Left ArrowRight Arrow

41.86663, -103.66717

Hourly Observations for May 1, 2021

Temp ( °F °C ) Dew Point ( °F °C ) Humidity (%) Winds ( mph kmh ) Pressure ( in mb ) Visibility ( mi km ) Precip ( " mm )
12:53 am 00:53 Clear 58 14.4 37 2.8 46 46 N 8 13 29.79 1009 10 16.0934 N/A
1:53 am 01:53 Clear 52 11.1 36 2.2 55 55 NNE 7 11 29.78 1008 10 16.0934 N/A
2:53 am 02:53 Clear 51 10.6 36 2.2 56 56 N 6 9 29.75 1007 10 16.0934 N/A
3:53 am 03:53 Clear 51 10.6 38 3.3 61 61 NNW 9 15 29.74 1007 10 16.0934 N/A
4:53 am 04:53 Clear 51 10.6 37 2.8 59 59 WSW 6 9 29.73 1007 10 16.0934 N/A
5:53 am 05:53 Sunny 47 8.3 37 2.8 69 69 NW 8 13 29.75 1007 10 16.0934 N/A
6:53 am 06:53 Sunny 53 11.7 39 3.9 59 59 NW 8 13 29.75 1008 10 16.0934 N/A
7:53 am 07:53 Sunny 62 16.7 40 4.4 44 44 NW 7 11 29.73 1007 10 16.0934 N/A
8:53 am 08:53 Sunny 69 20.6 36 2.2 30 30 NW 15 24 29.73 1007 10 16.0934 N/A
9:53 am 09:53 Sunny 75 23.9 37 2.8 25 25 NW 15 24 29.7 1006 10 16.0934 N/A
10:53 am 10:53 Sunny 79 26.1 39 3.9 24 24 W 10 17 29.67 1005 10 16.0934 N/A
11:53 am 11:53 Sunny 83 28.3 37 2.8 19 19 WNW 10 17 29.64 1004 10 16.0934 N/A
12:53 pm 12:53 Sunny 82 27.8 37 2.8 20 20 W 6 9 29.63 1004 10 16.0934 N/A
1:53 pm 13:53 Sunny 84 28.9 34 1.1 17 17 W 7 11 29.62 1003 10 16.0934 N/A
2:53 pm 14:53 Sunny 86 30 30 -1.1 13 13 WNW 8 13 29.59 1002 10 16.0934 N/A
3:53 pm 15:53 Sunny 85 29.4 34 1.1 16 16 NNW 13 20 29.57 1001 10 16.0934 N/A
4:53 pm 16:53 Sunny 85 29.4 35 1.7 17 17 N 9 15 29.54 1000 10 16.0934 N/A
5:53 pm 17:53 Sunny 83 28.3 39 3.9 21 21 N 8 13 29.54 1000 10 16.0934 N/A
6:53 pm 18:53 Mostly Cloudy 75 23.9 43 6.1 32 32 WNW 5 7 29.56 1001 10 16.0934 N/A
7:53 pm 19:53 Mostly Sunny 74 23.3 37 2.8 26 26 SW 9 15 29.54 1001 10 16.0934 0.001 0.001
8:53 pm 20:53 Clear 71 21.7 39 3.9 31 31 ESE 9 15 29.5 999 10 16.0934 N/A
9:53 pm 21:53 Mostly Cloudy 70 21.1 40 4.4 34 34 WSW 5 7 29.52 1000 10 16.0934 N/A
10:53 pm 22:53 Cloudy 65 18.3 42 5.6 43 43 N 14 22 29.53 1000 10 16.0934 N/A
11:53 pm 23:53 Clear 63 17.2 45 7.2 52 52 NNE 21 33 29.48 998 10 16.0934 N/A

Powered by AerisWeather